Location: Siratepeler Tepesi
(39.1042°N, 32.0781°E)
Time: 04:36:15
(UTC+00:00)

Lacrosse 5 rocket - Pass Details

Date: 11 April 2026
Orbit: 390 x 473 km, 57.0° (Epoch: 9 May)

Event Time Altitude Azimuth Distance (km) Brightness Sun altitude
Rises 18:22:44 0° 250° (WSW) 2,299 5.0 -22.0°
Reaches altitude 10° 18:25:03 10° 264° (W) 1,434 4.1 -22.3°
Maximum altitude 18:27:43 24° 321° (NW) 865 3.0 -22.8°
Enters shadow 18:30:11 11° 16° (NNE) 1,361 3.5 -23.2°
